EW8261 Weather Reports


Display with metric or nautical units.
time (UTC)temp
F
wind
direction
speed
MPH
gust
MPH
rain 1hr
in
rain 24hr
in
rain mn
in
humidity
%
barometer
mb
20260505021552 65 68 0.0 0.0 0.00 0.00 0.00 78 1006.8
20260505020052 66 118 0.0 0.0 0.00 0.00 0.00 78 1006.5
20260505014552 66 121 0.0 0.0 0.00 0.00 0.00 77 1006.4
20260505013051 68 283 0.0 0.0 0.00 0.00 0.00 75 1006.4
20260505011551 68 283 0.0 0.0 0.00 0.00 0.00 72 1006.1
20260505010059 70 282 0.0 0.0 0.00 0.00 0.00 69 1006.1
20260505004550 72 282 0.0 0.0 0.00 0.00 0.00 65 1006.3
20260505003048 73 306 0.0 0.0 0.00 0.00 0.00 62 1006.1
20260505001550 74 252 0.0 2.0 0.00 0.00 0.00 60 1006.3
20260505000055 75 261 0.0 4.0 0.00 0.00 0.00 59 1006.3
20260504234550 75 126 0.0 4.0 0.00 0.00 0.00 58 1006.4
20260504233043 76 276 0.0 9.0 0.00 0.00 0.00 57 1006.5
20260504231542 76 288 0.0 6.0 0.00 0.00 0.00 56 1006.7
20260504230041 77 284 1.0 5.0 0.00 0.00 0.00 56 1007.0
20260504224539 78 257 1.0 6.0 0.00 0.00 0.00 53 1007.1
20260504223037 78 258 0.0 5.0 0.00 0.00 0.00 55 1007.1
20260504221539 77 276 2.0 10.0 0.00 0.00 0.00 53 1007.3
20260504220045 78 252 1.0 8.0 0.00 0.00 0.00 54 1007.5
20260504214536 78 259 1.0 8.0 0.00 0.00 0.00 52 1007.5
20260504213044 78 276 3.0 11.0 0.00 0.00 0.00 51 1007.8
20260504211538 78 94 2.0 12.0 0.00 0.00 0.00 51 1008.0
20260504210028 79 283 4.0 13.0 0.00 0.00 0.00 50 1008.2
20260504204536 79 248 1.0 8.0 0.00 0.00 0.00 49 1008.4
20260504203024 79 245 2.0 12.0 0.00 0.00 0.00 50 1008.6
20260504201522 79 327 4.0 10.0 0.00 0.00 0.00 49 1008.8
20260504200021 80 244 3.0 10.0 0.00 0.00 0.00 49 1009.1
20260504194519 79 240 3.0 12.0 0.00 0.00 0.00 49 1009.4
20260504193017 80 264 2.0 11.0 0.00 0.00 0.00 49 1009.7
20260504191513 79 298 2.0 13.0 0.00 0.00 0.00 49 1009.9
20260504190014 79 293 3.0 9.0 0.00 0.00 0.00 50 1010.1
20260504184511 79 288 2.0 9.0 0.00 0.00 0.00 50 1010.1
20260504183008 78 221 2.0 11.0 0.00 0.00 0.00 51 1010.4
20260504181507 78 293 4.0 11.0 0.00 0.00 0.00 50 1010.5
20260504180006 77 265 3.0 11.0 0.00 0.00 0.00 50 1010.6
20260504174503 77 278 3.0 10.0 0.00 0.00 0.00 52 1010.8
20260504173100 77 305 1.0 13.0 0.00 0.00 0.00 53 1011.2
20260504171557 75 257 3.0 16.0 0.00 0.00 0.00 52 1011.2
20260504081558 53 267 0.0 0.0 0.00 0.00 0.00 94 1012.3
20260504044534 58 267 0.0 0.0 0.00 0.00 0.00 88 1013.4
20260504043038 58 267 0.0 0.0 0.00 0.00 0.00 88 1013.4
20260504041525 58 267 0.0 0.0 0.00 0.00 0.00 87 1013.5
20260504040026 59 267 0.0 0.0 0.00 0.00 0.00 86 1013.5
20260504034525 59 267 0.0 0.0 0.00 0.00 0.00 85 1013.7
20260504033024 60 267 0.0 0.0 0.00 0.00 0.00 84 1013.8
20260504031524 60 267 0.0 0.0 0.00 0.00 0.00 83 1013.8
20260504030023 61 267 0.0 0.0 0.00 0.00 0.00 81 1013.7
20260504024523 62 267 0.0 0.0 0.00 0.00 0.00 80 1013.7
20260504023022 63 267 0.0 0.0 0.00 0.00 0.00 78 1013.6